TimeEST,TemperatureF,Dew PointF,Humidity,Sea Level PressureIn,VisibilityMPH,Wind Direction,Wind SpeedMPH,Gust SpeedMPH,PrecipitationIn,Events,Conditions,WindDirDegrees,DateUTC
12:56 AM,46.0,41.0,83,29.96,-9999.0,WNW,3.5,-,N/A,,Clear,290,2013-02-16 05:56:00
1:56 AM,45.0,44.1,97,29.94,-9999.0,West,3.5,-,N/A,,Clear,260,2013-02-16 06:56:00
2:56 AM,42.1,39.9,92,29.92,-9999.0,WSW,5.8,-,N/A,,Clear,240,2013-02-16 07:56:00
3:56 AM,44.1,41.0,89,29.91,-9999.0,WSW,6.9,-,N/A,,Clear,250,2013-02-16 08:56:00
4:56 AM,44.1,39.9,85,29.91,-9999.0,WNW,9.2,-,N/A,,Clear,290,2013-02-16 09:56:00
5:56 AM,44.1,39.0,82,29.89,-9999.0,NW,9.2,-,N/A,,Clear,310,2013-02-16 10:56:00
6:56 AM,44.1,39.9,85,29.90,-9999.0,North,6.9,-,N/A,,Clear,360,2013-02-16 11:56:00
7:56 AM,46.9,41.0,80,29.90,-9999.0,NE,12.7,-,N/A,,Clear,40,2013-02-16 12:56:00
8:25 AM,46.4,42.8,87,29.89,-9999.0,NE,10.4,19.6,N/A,,Mostly Cloudy,50,2013-02-16 13:25:00
8:48 AM,46.4,42.8,87,29.88,-9999.0,NE,11.5,-,N/A,,Overcast,50,2013-02-16 13:48:00
8:56 AM,46.9,42.1,83,29.89,-9999.0,NE,11.5,19.6,N/A,,Overcast,40,2013-02-16 13:56:00
9:56 AM,46.9,42.1,83,29.88,-9999.0,NE,11.5,-,N/A,,Overcast,40,2013-02-16 14:56:00
10:12 AM,46.4,41.0,81,29.87,-9999.0,NNE,12.7,-,N/A,,Overcast,30,2013-02-16 15:12:00
10:56 AM,46.9,41.0,80,29.87,-9999.0,NE,10.4,-,N/A,,Overcast,40,2013-02-16 15:56:00
11:56 AM,48.9,41.0,74,29.85,-9999.0,NE,10.4,-,N/A,,Overcast,50,2013-02-16 16:56:00
12:56 PM,48.9,41.0,74,29.81,-9999.0,North,5.8,-,N/A,,Overcast,10,2013-02-16 17:56:00
1:20 PM,50.0,41.0,71,29.78,-9999.0,NE,8.1,-,N/A,,Scattered Clouds,50,2013-02-16 18:20:00
1:56 PM,50.0,41.0,71,29.77,-9999.0,North,9.2,-,N/A,,Scattered Clouds,360,2013-02-16 18:56:00
2:54 PM,50.0,39.2,66,29.72,-9999.0,North,8.1,-,N/A,,Overcast,350,2013-02-16 19:54:00
2:56 PM,50.0,41.0,71,29.73,-9999.0,North,8.1,-,N/A,,Overcast,360,2013-02-16 19:56:00
3:37 PM,50.0,41.0,71,29.70,-9999.0,NNE,6.9,-,N/A,,Overcast,20,2013-02-16 20:37:00
3:48 PM,50.0,41.0,71,29.69,-9999.0,NNE,8.1,-,N/A,,Overcast,30,2013-02-16 20:48:00
3:56 PM,50.0,41.0,71,29.70,-9999.0,NNE,5.8,-,N/A,,Overcast,30,2013-02-16 20:56:00
4:56 PM,48.0,41.0,77,29.70,-9999.0,NNW,16.1,25.3,0.00,Rain,Light Rain,330,2013-02-16 21:56:00
5:12 PM,44.6,41.0,87,29.69,-9999.0,NW,18.4,26.5,0.02,Rain,Rain,320,2013-02-16 22:12:00
5:22 PM,42.8,39.2,87,29.69,-9999.0,NW,19.6,25.3,0.03,Rain,Light Rain,320,2013-02-16 22:22:00
5:56 PM,39.9,37.9,93,29.74,-9999.0,NW,24.2,34.5,0.07,Rain,Rain,310,2013-02-16 22:56:00
6:56 PM,39.0,-9999,N/A,29.76,-9999.0,NW,20.7,31.1,0.07,Rain,Light Rain,320,2013-02-16 23:56:00
7:56 PM,37.9,-9999,N/A,29.77,-9999.0,NNW,21.9,28.8,0.02,Snow,Light Snow,330,2013-02-17 00:56:00
8:20 PM,37.4,-9999,N/A,29.76,-9999.0,NNW,18.4,25.3,0.01,Rain,Light Rain,340,2013-02-17 01:20:00
8:56 PM,37.9,-9999,N/A,29.77,-9999.0,North,15.0,24.2,0.02,Rain,Light Rain,350,2013-02-17 01:56:00
9:56 PM,37.9,-9999,N/A,29.79,-9999.0,NW,17.3,26.5,0.01,Rain,Light Rain,310,2013-02-17 02:56:00
10:56 PM,37.0,-9999,N/A,29.81,-9999.0,NW,19.6,26.5,0.00,,Overcast,310,2013-02-17 03:56:00
11:56 PM,37.0,-9999,N/A,29.82,-9999.0,NW,18.4,24.2,N/A,,Overcast,310,2013-02-17 04:56:00